Location: Newark
(34.3481°N, 134.0494°E)
Time: 19:58:09
(UTC+00:00)

Vanguard 3 - Pass Details

Date: 19 January 2020
Orbit: 508 x 3263 km, 33.3° (Epoch: 22 February)

Event Time Altitude Azimuth Distance (km) Brightness Sun altitude
Rises 08:20:39 0° 220° (SW) 7,067 13.3 -1.0°
Reaches altitude 10° 08:25:37 10° 215° (SW) 6,160 12.7 -1.9°
Maximum altitude 08:43:57 47° 149° (SSE) 3,669 10.4 -5.4°
Drops below altitude 10° 08:58:10 10° 83° (E) 4,897 10.5 -8.2°
Enters shadow 08:58:46 - 81° (E) 5,010 10.5 -8.3°
